RH
13 17 19 19 19 18 16 16 17 16 16 17 18 18 19 19 17 20 19 17 17 16 13 11 10 9 7 8 8 8 9 10 9 10 10 10 10 11 12 13 14 15 16 14 12 10 8 7 8 8 9 9 10 10 10 10 10 10 11 11 11 12 12 12 12 12 13 13 13 13 13 14 14 15 15 15 15 17 18 19 21 22 23 25 26 28
13 19 19 16 15 15 15 15 16 16 16 16 16 16 16 16 15 15 14 13 13 12 9 8 8 8 7 6 6 7 9 10 10 10 10 10 11 12 12 13 14 16 15 14 11 8 7 7 8 9 10 10 10 10 10 10 11 11 11 11 12 12 12 13 13 13 13 13 13 14 14 15 16 16 17 18 19 20 21 22 24 25 27 29 30 31
14 17 15 13 14 14 14 15 15 15 15 14 14 13 10 12 11 10 14 14 11 11 8 8 9 8 7 7 6 6 9 10 10 10 11 11 11 12 12 13 14 15 15 13 11 9 8 8 9 10 10 10 10 11 11 11 11 12 12 12 12 13 13 13 14 14 14 14 14 15 15 16 18 19 20 22 23 24 25 27 28 30 32 33 33 33
16 14 13 13 14 13 12 12 12 12 13 11 10 9 8 10 8 8 15 15 11 11 9 10 12 9 8 8 7 7 9 10 11 11 11 12 11 11 12 12 13 13 14 13 12 12 11 9 9 10 10 11 11 12 12 12 12 12 12 13 14 14 14 14 14 14 15 15 16 17 18 20 21 23 24 26 27 28 30 32 34 36 36 36 35 35
15 14 12 12 13 12 10 10 10 10 12 11 8 7 8 9 8 8 11 11 9 12 15 16 14 10 10 10 9 8 9 11 11 11 12 12 12 12 12 12 13 13 13 13 12 12 13 12 9 10 11 11 12 12 12 13 13 13 13 14 15 15 15 15 15 15 16 18 20 22 24 25 26 27 28 30 31 33 35 37 38 38 36 36 36 36
12 12 12 13 12 11 11 11 10 10 10 11 9 9 8 8 9 9 9 10 9 13 20 20 12 8 9 10 10 11 12 12 12 12 13 13 13 13 13 13 14 14 14 14 14 13 14 14 12 11 12 12 12 13 13 13 14 14 15 16 16 17 17 17 17 19 21 24 25 26 27 27 29 30 32 34 36 39 41 41 41 39 37 37 36 36
10 10 12 12 12 12 12 11 11 10 8 10 12 11 10 9 10 10 10 12 11 12 17 17 12 10 10 10 11 13 14 12 12 13 14 13 14 14 15 15 16 17 17 16 17 16 17 16 15 13 13 12 13 13 13 14 15 15 16 17 17 18 19 20 22 24 25 26 26 27 27 29 30 33 35 38 41 43 43 41 40 40 39 38 36 35
11 10 11 11 11 11 10 9 10 10 8 10 12 11 11 11 11 12 12 12 13 13 15 16 17 17 14 12 13 15 14 13 13 15 15 15 15 16 17 18 18 19 20 20 20 20 20 19 17 15 15 15 15 15 15 15 16 16 17 18 19 21 23 25 25 26 27 27 28 29 30 31 33 35 38 41 44 43 41 39 39 39 38 37 36 35
12 10 9 10 10 8 9 10 11 11 10 11 13 13 13 13 14 14 13 13 16 18 17 18 21 19 15 14 14 15 15 13 14 15 16 16 17 18 19 20 20 21 22 22 22 22 22 22 20 19 19 19 19 19 18 19 19 20 21 22 24 26 27 27 27 28 29 31 32 33 34 35 37 39 42 44 44 41 40 40 40 39 37 37 36 35
13 13 12 11 9 8 10 12 13 13 13 14 16 16 16 17 17 16 15 17 21 22 19 19 21 18 14 13 13 15 15 14 13 14 14 16 17 19 19 20 21 21 23 24 24 25 25 24 24 23 23 23 23 23 23 24 24 25 26 27 28 28 28 28 29 31 33 34 35 36 38 39 41 43 46 46 43 41 42 42 41 40 38 38 37 37
16 18 16 15 12 11 13 15 16 16 15 17 19 18 18 18 18 17 17 19 22 22 20 21 21 18 15 14 13 15 16 14 13 12 13 15 17 19 20 21 22 23 24 25 26 26 27 27 26 26 26 26 26 27 27 27 27 28 29 29 29 29 30 31 32 34 35 37 38 40 41 42 45 48 48 46 44 43 44 43 41 40 39 39 38 37
18 18 18 19 18 16 15 16 18 18 17 19 17 15 15 15 16 16 17 20 20 19 19 19 18 18 18 15 13 15 16 15 14 13 14 16 18 20 22 23 24 25 26 27 27 28 28 28 28 28 28 28 28 28 28 28 28 28 29 29 29 30 32 33 34 36 38 39 41 42 44 47 51 51 49 46 45 45 43 41 41 40 40 39 38 38
16 16 16 19 20 18 15 14 16 18 17 16 14 13 14 13 14 16 15 16 17 16 17 16 16 16 16 15 14 16 17 16 15 14 14 16 18 21 23 23 24 25 25 27 28 28 29 29 29 29 28 28 29 29 28 28 28 28 28 29 30 31 33 35 37 38 40 42 43 46 50 54 54 50 48 46 45 43 41 40 40 40 40 40 39 38
13 15 16 16 17 18 16 11 12 16 15 14 13 13 14 14 15 16 15 15 16 16 15 14 15 15 13 12 14 15 17 16 16 17 16 16 18 22 23 22 23 24 25 27 28 28 28 29 29 29 29 29 29 29 29 29 29 29 30 31 32 33 35 37 38 40 43 45 48 52 56 56 52 49 47 45 41 38 38 38 38 38 38 38 38 38
12 15 16 15 15 18 18 14 14 15 14 14 13 13 14 16 17 17 17 18 19 17 15 15 16 15 13 12 12 15 18 18 17 18 19 19 21 23 24 24 24 24 26 28 28 28 27 28 28 28 29 29 30 29 29 29 29 30 31 32 33 35 36 38 40 43 46 50 54 58 58 53 50 48 46 41 37 35 35 34 32 32 32 34 36 37
12 13 17 19 17 17 17 17 18 16 14 15 15 15 17 18 18 18 20 21 22 21 18 18 17 14 13 12 12 15 19 19 19 19 21 22 24 25 25 25 24 24 26 28 28 28 27 27 28 28 29 30 30 30 30 30 30 31 33 34 35 37 38 39 42 45 50 56 60 59 55 51 49 47 42 38 36 35 34 31 29 27 27 31 35 37
14 14 19 20 18 18 18 19 21 18 16 17 17 18 19 19 19 20 21 22 25 25 22 20 19 17 15 14 13 15 17 19 19 20 21 22 23 25 26 25 24 24 26 28 28 28 28 28 28 28 29 30 31 31 31 31 32 33 35 36 37 38 39 41 44 49 55 61 61 56 52 50 48 43 39 38 37 36 33 30 28 26 27 31 35 37
14 15 18 19 18 21 23 22 22 22 20 18 18 20 21 21 21 21 24 25 26 27 23 20 21 20 20 18 15 14 16 18 19 19 20 20 21 24 24 24 23 24 26 27 28 28 28 28 28 29 30 31 32 32 32 34 35 36 38 38 39 39 40 43 48 54 60 62 59 53 50 48 45 41 40 39 37 35 32 29 27 26 26 29 32 32
14 14 18 20 20 22 24 22 22 23 23 20 20 22 22 24 25 23 25 27 27 28 25 22 23 22 22 21 17 15 16 16 17 18 19 20 21 23 23 23 23 24 26 27 28 29 29 30 30 30 31 32 32 33 34 36 37 38 39 39 40 41 43 47 53 59 63 61 57 53 50 47 44 42 41 39 37 34 31 28 26 26 25 25 25 24
15 14 16 21 21 21 23 22 21 21 24 23 22 23 24 26 27 25 27 28 28 29 27 27 26 23 21 21 19 18 17 16 17 18 20 21 23 23 23 22 23 24 25 26 27 29 30 31 32 32 33 33 33 34 36 37 38 39 40 42 43 45 48 53 59 63 62 59 55 53 49 46 44 42 41 39 37 33 29 28 26 26 25 23 23 22
17 15 15 20 23 21 20 21 20 20 22 23 23 25 26 27 27 27 28 29 29 29 28 30 29 21 18 20 20 20 20 18 18 20 22 23 23 24 23 22 23 24 24 26 28 29 30 32 33 34 34 35 35 37 38 39 40 41 43 46 48 50 54 58 63 64 61 57 55 53 49 46 44 43 42 39 36 32 29 27 26 26 25 24 23 22
18 17 17 19 21 19 18 21 22 21 21 21 21 24 26 27 29 30 30 30 30 31 29 32 31 21 17 21 21 20 20 19 20 22 24 24 24 25 24 23 23 24 25 26 28 30 30 31 33 35 36 37 38 40 41 42 43 45 47 50 53 56 59 63 65 64 61 58 55 52 48 46 45 44 42 39 35 31 28 27 26 26 25 25 24 23
21 19 20 20 20 19 20 23 25 24 23 21 21 22 25 28 29 30 31 31 31 32 31 35 33 21 18 23 22 20 21 21 22 23 24 24 24 25 26 25 26 26 26 27 28 30 30 31 33 36 37 39 41 42 44 45 47 49 52 55 58 61 63 66 67 65 61 58 55 51 48 46 45 44 42 39 35 31 28 27 27 26 25 24 23 23
24 22 23 23 22 22 23 25 25 25 24 22 21 22 23 26 29 29 30 31 30 31 32 35 31 22 21 24 23 23 24 23 24 24 24 25 25 26 27 28 28 29 29 29 29 30 31 32 34 37 39 42 45 46 47 49 52 55 57 60 63 65 67 69 68 65 62 58 53 49 48 46 45 44 42 38 34 31 29 28 28 26 25 24 23 24
25 24 25 27 26 25 25 26 28 28 27 24 23 23 23 27 33 32 30 31 30 29 32 34 29 22 23 26 26 26 27 25 25 24 24 25 26 27 29 29 30 31 31 32 31 32 33 34 36 39 42 45 48 49 51 53 56 59 60 63 67 69 71 71 69 66 61 56 52 49 48 46 45 44 41 37 33 31 29 29 28 26 25 24 24 24
26 25 26 29 30 29 29 29 29 29 29 27 26 27 28 32 37 33 30 32 33 31 31 31 26 22 23 26 27 29 29 27 26 26 26 27 27 28 29 30 32 33 34 34 34 34 35 37 38 41 44 47 50 52 55 57 59 61 63 66 70 72 73 72 70 66 60 54 51 50 48 46 45 43 40 36 32 31 30 29 27 26 25 24 24 24
28 27 27 28 29 29 29 29 29 29 30 29 30 33 34 37 39 36 33 33 33 34 33 28 28 28 24 23 28 31 30 29 29 28 29 29 28 29 30 31 33 34 35 36 37 37 38 39 41 43 46 50 53 56 58 60 61 63 66 69 72 75 75 73 70 65 58 53 52 50 48 47 45 42 39 35 33 31 30 29 27 25 25 24 24 25
30 30 30 30 29 29 28 29 30 31 31 31 33 36 38 40 44 44 39 33 33 37 34 26 29 33 26 23 28 30 30 30 31 31 32 31 30 31 31 32 34 35 36 37 38 38 39 40 42 45 49 53 56 58 60 62 63 66 69 72 75 78 78 75 70 63 56 52 52 50 48 46 44 41 38 35 33 31 30 28 27 26 25 25 25 25
32 31 32 34 33 31 30 31 31 32 33 33 34 35 37 41 46 47 41 36 37 40 34 27 30 31 28 27 29 29 30 32 34 35 35 35 34 34 33 34 35 35 37 38 39 39 40 42 44 48 52 55 58 60 61 63 65 68 71 75 78 80 79 75 69 60 54 52 52 50 48 45 43 40 37 35 33 31 30 29 27 26 26 26 26 26
33 33 36 39 37 32 32 33 33 34 35 35 35 34 35 38 43 45 39 36 40 41 36 33 33 30 28 31 32 30 32 34 36 38 39 39 38 37 36 35 36 37 38 39 40 40 41 43 47 50 54 58 60 61 62 65 67 70 74 77 81 82 80 74 66 58 53 52 51 50 47 44 42 40 37 35 33 31 30 29 28 27 27 27 27 27
33 35 39 41 38 34 32 32 34 35 36 37 35 33 35 37 39 41 40 39 43 43 39 38 38 34 32 35 35 33 35 36 38 40 42 42 42 40 39 37 37 39 40 41 41 42 44 47 50 53 56 59 61 62 64 66 69 72 76 80 83 84 79 71 62 56 53 52 51 48 45 43 42 39 37 35 33 32 30 29 28 28 28 29 28 28
34 35 35 36 38 34 29 31 34 35 37 38 34 31 33 37 37 38 40 41 44 46 44 44 44 40 36 37 37 36 37 39 40 41 43 44 44 43 41 40 40 41 42 43 44 45 48 50 53 55 58 60 62 63 65 69 71 74 78 82 85 84 78 69 60 55 54 52 50 48 44 42 41 39 37 35 33 32 31 30 30 30 30 30 30 29
35 35 33 35 39 35 30 33 34 36 40 37 31 30 33 34 35 37 38 40 42 45 47 47 43 41 40 40 40 40 41 42 44 45 46 47 47 45 43 43 43 44 45 46 48 49 51 53 56 58 60 61 63 65 68 71 74 77 81 85 87 84 76 65 57 55 54 52 50 47 44 42 41 39 37 35 34 33 32 31 31 32 32 32 31 30
36 36 34 35 37 35 33 34 36 41 41 32 26 29 31 31 34 36 37 39 42 43 45 44 42 42 44 43 43 44 45 45 46 48 50 52 51 48 47 47 47 47 48 49 51 52 54 57 60 62 63 64 66 68 72 75 77 81 85 88 89 84 73 62 57 55 54 52 49 46 44 42 41 38 37 36 35 34 33 33 33 33 33 33 32 31
36 37 35 35 37 38 36 39 44 44 37 28 25 27 29 30 33 36 36 38 42 44 44 44 44 45 46 46 48 50 49 48 49 51 54 55 52 51 50 49 49 50 50 51 53 55 57 61 63 64 65 67 69 72 75 78 81 85 88 90 89 80 69 60 57 55 53 51 48 45 43 42 41 39 37 36 35 35 34 35 35 35 35 34 33 33
32 35 36 37 39 41 40 41 43 37 28 25 27 28 29 31 34 37 38 37 41 46 46 46 47 48 49 52 53 53 53 52 52 53 54 53 52 52 52 52 52 53 54 54 55 58 61 64 65 66 68 70 72 75 78 81 85 89 91 91 86 75 65 59 57 55 53 50 47 45 44 42 41 39 38 37 37 36 36 37 37 37 37 36 36 35
28 33 38 41 42 42 42 40 37 34 30 29 28 29 31 34 36 42 43 40 41 47 48 49 51 52 55 57 58 58 59 57 54 53 54 52 51 53 55 56 57 57 58 58 60 62 65 67 68 70 72 73 76 79 82 85 89 92 93 91 82 70 62 59 57 54 52 49 46 44 44 43 41 40 39 38 38 38 38 39 39 39 39 38 37 37
29 31 37 45 44 42 45 45 43 42 39 33 31 33 36 38 41 45 49 47 46 50 54 56 59 60 62 63 64 65 66 64 59 55 55 54 53 56 59 60 60 61 61 63 65 68 70 71 73 75 76 77 80 82 85 90 92 94 93 88 77 67 62 59 57 54 51 48 46 45 44 43 42 41 40 39 40 40 40 41 41 41 41 40 39 38
33 32 38 49 50 47 50 52 49 47 43 38 38 39 41 44 46 49 56 57 53 54 59 63 64 66 68 69 70 71 71 68 63 58 58 58 59 60 63 63 63 63 65 67 71 73 75 76 78 79 79 81 82 85 89 93 94 94 92 85 74 65 61 58 56 53 50 48 46 45 44 43 43 42 41 41 41 42 43 43 43 43 42 42 40 39
40 40 45 53 53 52 57 58 52 48 46 46 47 46 47 50 52 59 67 65 59 60 65 68 69 70 73 74 73 74 74 72 68 64 62 63 64 65 66 66 66 67 70 73 76 78 79 81 82 81 82 83 85 89 92 94 93 93 89 81 71 64 60 57 55 53 50 47 46 45 45 44 44 43 43 43 44 44 45 45 45 45 44 43 41 40
47 47 50 55 56 58 65 66 61 56 54 55 56 54 56 59 63 71 76 71 67 69 71 73 74 75 75 76 75 75 75 74 73 72 69 69 69 68 68 69 71 73 76 78 80 81 83 84 84 84 84 86 89 92 94 94 93 92 87 77 68 61 58 57 55 52 50 47 46 46 45 45 45 45 45 45 46 46 47 47 46 46 46 44 43 42
52 54 54 59 62 63 67 71 71 69 66 64 63 63 67 74 79 82 81 78 77 78 77 76 75 75 76 76 75 75 75 73 74 76 74 73 73 71 71 72 75 77 79 81 82 83 85 87 86 85 86 89 92 94 94 94 94 91 83 73 65 60 58 57 55 52 49 47 46 46 46 46 46 46 46 47 48 48 48 48 49 48 47 46 45 44
55 58 58 62 66 69 74 80 84 82 76 72 73 75 79 86 90 89 87 83 81 82 82 80 77 76 79 79 76 74 75 74 75 76 76 75 75 75 76 77 79 81 82 83 84 85 88 89 87 86 89 91 94 94 94 95 94 89 80 69 62 61 59 57 54 51 49 47 47 47 47 47 48 48 48 49 50 50 50 50 51 51 50 48 47 46
64 68 69 71 73 76 81 84 85 85 82 82 86 88 88 91 91 91 91 89 85 84 87 86 82 82 85 86 84 80 78 78 78 79 79 79 79 80 81 82 83 84 84 85 87 88 90 91 89 89 92 94 95 95 95 95 94 87 76 66 63 61 59 57 54 51 49 48 48 48 48 49 49 50 50 51 52 53 53 53 53 53 52 50 49 49
72 75 78 80 80 82 85 85 84 84 84 86 89 91 90 91 91 91 93 93 90 90 90 90 88 87 88 91 91 88 85 84 84 84 85 85 84 84 85 85 85 86 87 88 89 90 92 92 91 92 95 95 95 96 96 96 94 85 73 66 63 62 59 57 54 51 49 48 48 49 49 50 51 52 53 54 55 55 55 55 55 54 53 52 51 51
76 79 81 84 86 86 85 85 86 87 87 87 88 87 87 87 88 89 90 90 90 90 90 91 91 90 90 92 93 92 90 88 88 89 88 88 88 87 87 88 88 88 89 90 91 92 93 94 95 95 96 96 96 96 97 97 92 82 71 67 64 61 59 57 54 51 49 49 49 50 51 52 53 54 55 56 56 57 57 57 57 55 54 53 53 53
82 85 86 88 91 91 87 84 84 85 85 85 84 84 84 85 85 86 88 88 88 89 89 90 91 92 92 92 93 94 92 89 90 92 91 90 91 90 90 90 90 90 92 92 93 94 95 96 97 97 97 97 97 97 98 97 90 79 71 66 64 61 59 57 54 51 50 50 50 52 52 53 54 55 57 57 58 58 58 58 57 56 55 55 54 55
89 90 91 90 90 90 88 85 85 84 83 83 85 85 85 84 81 79 79 82 85 87 87 86 86 87 88 87 90 93 92 88 91 95 95 94 95 94 93 93 93 93 94 94 95 96 96 97 99 98 98 98 98 98 99 96 87 77 69 65 63 61 59 57 54 51 50 51 52 53 54 54 55 57 58 59 59 59 59 58 57 56 56 56 57 58
93 93 93 91 88 85 84 85 86 84 77 75 79 83 85 87 84 76 70 71 73 74 74 72 71 73 76 78 82 87 89 87 90 95 97 96 96 97 96 95 96 96 96 96 96 97 98 99 99 99 99 99 99 99 99 93 84 74 69 65 63 61 59 57 54 53 52 52 53 54 55 56 57 58 59 60 60 60 59 58 58 58 58 59 60 62
91 92 91 90 89 87 84 84 88 89 80 69 67 68 69 75 76 66 57 56 56 55 57 57 54 54 57 61 66 73 77 79 82 89 93 94 96 98 98 97 97 97 97 98 98 98 99 99 100 100 100 100 100 100 97 90 81 73 68 65 63 61 60 58 56 55 54 54 54 55 56 57 59 60 61 62 61 60 59 59 59 60 61 62 64 66
86 87 86 87 86 81 75 73 77 81 76 64 55 50 48 51 53 49 47 49 49 47 49 51 49 48 47 49 53 60 66 69 73 79 85 88 92 96 98 98 98 98 98 99 99 99 100 100 100 100 100 100 99 98 94 87 79 72 68 65 62 61 61 59 58 57 57 56 56 56 57 59 61 62 62 63 62 61 61 61 61 62 64 66 67 68